CORVUS BC1

Last updated on Fri Feb 06 2026 00:03:54 GMT+0000 (Coordinated Universal Time)

1 42847U 17042Y 26036.43564395 .00005014 00000+0 35178-3 0 9991 2 42847 97.3923 203.8278 0012179 172.7497 187.3908 15.05538519467260
UTC large
Height (km)
Speed (km/s)
/
Latitude / Longitude
Inclination (degrees)
Orbital Period (minutes)
Azimuth
Elevation
Range (km)
Doppler Factor

Next 0 passes for location: London (51.5072 / 0.1276)

Sorry there are no passes over London.